Вернуться в каталог

TIANLIAN-2 03

АктивенСвязьGEO
NORAD 53100·PAYLOAD·🇨🇳 China

Запущен Jul 12, 2022 с Xichang Satellite Launch Center

Loading…

TLE

СвежийSource: Space-Track

Эпоха: Sep 14, 2026, 13:51 UTC

1 53100U 22078A   26257.57718102  .00000064  00000-0  00000-0 0  9991
2 53100   0.8935  77.7878 0001574 144.5618 349.5613  1.00272623 15444

Отслеживайте TIANLIAN-2 03 в реальном времени с AllMySat

Download on the App Store